KE8DDT-7 Weather Reports


time (UTC)temp
C
wind
direction
speed
KPH
gust
KPH
rain 1hr
cm
rain 24hr
cm
rain mn
cm
humidity
%
barometer
mb
20260503193153 16 0 0.0 11.3 0.00 0.00 0.00 42 1002.1
20260503192653 16 0 0.0 11.3 0.00 0.00 0.00 41 1002.3
20260503192153 16 0 0.0 12.9 0.00 0.00 0.00 40 1002.3
20260503191653 16 0 0.0 12.9 0.00 0.00 0.00 43 1002.4
20260503191153 16 0 0.0 9.7 0.00 0.00 0.00 42 1002.5
20260503190534 16 0 0.0 6.4 0.00 0.00 0.00 42 1002.6
20260503190034 16 0 0.0 8.0 0.00 0.00 0.00 41 1002.6
20260503185534 16 241 1.6 20.9 0.00 0.00 0.00 40 1002.6
20260503185034 16 0 0.0 20.9 0.00 0.00 0.00 41 1002.7
20260503184535 16 0 0.0 12.9 0.00 0.00 0.00 42 1002.8
20260503184015 16 223 1.6 14.5 0.00 0.00 0.00 40 1002.8
20260503183430 16 0 0.0 8.0 0.00 0.00 0.00 40 1002.9
20260503182844 16 0 0.0 3.2 0.00 0.00 0.00 40 1002.9
20260503182245 16 0 0.0 11.3 0.00 0.00 0.00 39 1003.0
20260503181406 16 243 1.6 14.5 0.00 0.00 0.00 39 1003.2
20260503180906 16 0 0.0 14.5 0.00 0.00 0.00 40 1003.1
20260503180406 16 0 0.0 4.8 0.00 0.00 0.00 41 1003.2
20260503175906 16 0 0.0 6.4 0.00 0.00 0.00 39 1003.5
20260503175406 16 0 0.0 9.7 0.00 0.00 0.00 43 1003.4
20260503174906 16 0 0.0 11.3 0.00 0.00 0.00 42 1003.5
20260503174407 16 0 0.0 11.3 0.00 0.00 0.00 43 1003.5
20260503173406 15 0 0.0 8.0 0.00 0.00 0.00 44 1003.6
20260503172906 15 0 0.0 4.8 0.00 0.00 0.00 46 1003.6
20260503172406 15 0 0.0 6.4 0.00 0.00 0.00 46 1003.8
20260503171906 14 0 0.0 6.4 0.00 0.00 0.00 45 1003.9
20260503171406 14 0 0.0 8.0 0.00 0.00 0.00 46 1004.0
20260503170906 14 0 0.0 11.3 0.00 0.00 0.00 46 1004.0
20260503170406 14 0 0.0 11.3 0.00 0.00 0.00 47 1004.1
20260503150906 11 0 0.0 9.7 0.00 0.00 0.00 47 1005.3
20260503150406 12 0 0.0 4.8 0.00 0.00 0.00 46 1005.4
20260503131406 10 0 0.0 4.8 0.00 0.00 0.00 51 1005.6
20260503130906 10 0 0.0 3.2 0.00 0.00 0.00 53 1005.6
20260503130406 9 0 0.0 17.7 0.00 0.00 0.00 53 1005.6
20260503110507 2 0 0.0 3.2 0.00 0.00 0.00 69 1005.6
20260503090430 1 0 0.0 0.0 0.00 0.00 0.00 68 1006.3
20260503081430 1 0 0.0 0.0 0.00 0.00 0.00 66 1006.5
20260503080930 1 0 0.0 0.0 0.00 0.00 0.00 66 1006.5
20260503080430 1 0 0.0 0.0 0.00 0.00 0.00 65 1006.5
20260503072849 2 0 0.0 0.0 0.00 0.00 0.00 64 1006.6
20260503071836 2 0 0.0 0.0 0.00 0.00 0.00 65 1006.6
20260503070836 2 0 0.0 0.0 0.00 0.00 0.00 64 1006.8
20260503070338 2 0 0.0 0.0 0.00 0.00 0.00 64 1006.7
20260503060323 3 0 0.0 0.0 0.00 0.00 0.00 61 1007.2
20260503054823 3 0 0.0 0.0 0.00 0.00 0.00 59 1007.3
20260503054323 3 0 0.0 0.0 0.00 0.00 0.00 59 1007.4
20260503053823 3 0 0.0 0.0 0.00 0.00 0.00 60 1007.6
20260503053323 3 0 0.0 0.0 0.00 0.00 0.00 59 1007.5
20260503052823 3 0 0.0 0.0 0.00 0.00 0.00 60 1007.5
20260503052323 3 0 0.0 0.0 0.00 0.00 0.00 60 1007.5
20260503051823 3 0 0.0 0.0 0.00 0.00 0.00 60 1007.6
20260503051323 3 0 0.0 0.0 0.00 0.00 0.00 60 1007.6
20260503050823 3 0 0.0 0.0 0.00 0.00 0.00 60 1007.6
20260503050323 3 0 0.0 0.0 0.00 0.00 0.00 60 1007.6
20260503045824 3 0 0.0 0.0 0.00 0.00 0.00 61 1007.7
20260503045323 3 0 0.0 0.0 0.00 0.00 0.00 61 1007.7
20260503044628 3 0 0.0 0.0 0.00 0.00 0.00 61 1007.6
20260503044128 3 0 0.0 0.0 0.00 0.00 0.00 61 1007.7
20260503043629 3 0 0.0 0.0 0.00 0.00 0.00 60 1007.6
20260503043130 3 0 0.0 0.0 0.00 0.00 0.00 60 1007.7
20260503042128 3 0 0.0 0.0 0.00 0.00 0.00 60 1007.7
20260503041628 3 0 0.0 0.0 0.00 0.00 0.00 60 1007.7
20260503041130 3 0 0.0 0.0 0.00 0.00 0.00 60 1007.8
20260503040628 3 0 0.0 0.0 0.00 0.00 0.00 60 1007.8
20260503040128 3 0 0.0 0.0 0.00 0.00 0.00 60 1007.8
20260503035130 3 0 0.0 0.0 0.00 0.00 0.00 60 1007.9
20260503034628 3 0 0.0 0.0 0.00 0.00 0.00 60 1007.9
20260503033628 3 0 0.0 0.0 0.00 0.00 0.00 60 1007.9
20260503033131 4 0 0.0 0.0 0.00 0.00 0.00 60 1007.9
20260503032128 4 0 0.0 0.0 0.00 0.00 0.00 59 1008.0
20260503031629 4 0 0.0 0.0 0.00 0.00 0.00 59 1008.0
20260503031130 4 0 0.0 0.0 0.00 0.00 0.00 59 1008.0
20260503030628 4 0 0.0 0.0 0.00 0.00 0.00 58 1008.0
20260503030130 4 0 0.0 0.0 0.00 0.00 0.00 58 1008.0
20260503025628 4 0 0.0 0.0 0.00 0.00 0.00 58 1008.0
20260503024628 5 0 0.0 0.0 0.00 0.00 0.00 57 1008.1
20260503024128 5 0 0.0 0.0 0.00 0.00 0.00 57 1008.1
20260503023520 5 0 0.0 0.0 0.00 0.00 0.00 57 1008.1
20260503022957 5 0 0.0 0.0 0.00 0.00 0.00 57 1008.1
20260503022400 5 0 0.0 0.0 0.00 0.00 0.00 57 1008.2
20260503021900 5 0 0.0 0.0 0.00 0.00 0.00 57 1008.1
20260503021400 5 0 0.0 0.0 0.00 0.00 0.00 56 1008.1
20260503020900 5 0 0.0 0.0 0.00 0.00 0.00 56 1008.1
20260503020400 5 0 0.0 0.0 0.00 0.00 0.00 56 1008.1
20260503015900 5 0 0.0 0.0 0.00 0.00 0.00 55 1008.1
20260503015400 5 0 0.0 0.0 0.00 0.00 0.00 55 1008.1
20260503014900 5 0 0.0 0.0 0.00 0.00 0.00 55 1008.0
20260503014401 5 0 0.0 0.0 0.00 0.00 0.00 54 1008.0
20260503013901 6 0 0.0 0.0 0.00 0.00 0.00 54 1008.0
20260503013140 6 0 0.0 0.0 0.00 0.00 0.00 54 1007.9
20260503012639 6 0 0.0 0.0 0.00 0.00 0.00 54 1007.9
20260503012042 6 0 0.0 0.0 0.00 0.00 0.00 53 1007.9
20260503011542 6 0 0.0 0.0 0.00 0.00 0.00 53 1007.9
20260503010542 6 0 0.0 0.0 0.00 0.00 0.00 52 1007.8
20260503010042 6 0 0.0 0.0 0.00 0.00 0.00 52 1007.8
20260503005542 6 0 0.0 0.0 0.00 0.00 0.00 52 1007.8
20260503005042 7 0 0.0 0.0 0.00 0.00 0.00 52 1007.7
20260503004542 7 0 0.0 0.0 0.00 0.00 0.00 51 1007.7
20260503004042 7 0 0.0 0.0 0.00 0.00 0.00 51 1007.7
20260503003542 7 0 0.0 0.0 0.00 0.00 0.00 51 1007.7
20260503003042 7 0 0.0 0.0 0.00 0.00 0.00 51 1007.6
20260503002542 7 0 0.0 0.0 0.00 0.00 0.00 52 1007.6
20260503002042 7 0 0.0 0.0 0.00 0.00 0.00 51 1007.6
20260503001146 7 0 0.0 0.0 0.00 0.00 0.00 52 1007.5
20260503000646 7 0 0.0 0.0 0.00 0.00 0.00 51 1007.5
20260503000146 7 0 0.0 0.0 0.00 0.00 0.00 52 1007.5
20260502235647 7 0 0.0 0.0 0.00 0.00 0.00 49 1007.6
20260502235146 8 0 0.0 0.0 0.00 0.00 0.00 50 1007.6
20260502234647 8 0 0.0 0.0 0.00 0.00 0.00 49 1007.6
20260502234147 8 0 0.0 0.0 0.00 0.00 0.00 51 1007.6
20260502233647 8 0 0.0 0.0 0.00 0.00 0.00 48 1007.7
20260502233146 8 0 0.0 1.6 0.00 0.00 0.00 48 1007.8
20260502232146 8 0 0.0 1.6 0.00 0.00 0.00 49 1007.8
20260502231647 8 0 0.0 1.6 0.00 0.00 0.00 49 1007.8
20260502230839 8 0 0.0 0.0 0.00 0.00 0.00 49 1007.8
20260502230339 8 0 0.0 0.0 0.00 0.00 0.00 47 1007.8
20260502225839 8 0 0.0 0.0 0.00 0.00 0.00 48 1007.9
20260502225339 8 0 0.0 0.0 0.00 0.00 0.00 48 1007.9
20260502224839 8 0 0.0 1.6 0.00 0.00 0.00 47 1007.9
20260502224339 8 0 0.0 1.6 0.00 0.00 0.00 47 1007.9
20260502223839 8 0 0.0 1.6 0.00 0.00 0.00 47 1007.9
20260502223339 8 0 0.0 1.6 0.00 0.00 0.00 47 1007.9
20260502222839 8 0 0.0 1.6 0.00 0.00 0.00 47 1007.9
20260502222339 8 0 0.0 1.6 0.00 0.00 0.00 46 1007.9
20260502221839 8 0 0.0 1.6 0.00 0.00 0.00 47 1007.9
20260502221340 8 0 0.0 1.6 0.00 0.00 0.00 46 1007.9
20260502220430 8 0 0.0 3.2 0.00 0.00 0.00 46 1007.9
20260502215930 8 0 0.0 16.1 0.00 0.00 0.00 46 1007.8
20260502215432 8 0 0.0 16.1 0.00 0.00 0.00 46 1007.9
20260502214930 8 0 0.0 1.6 0.00 0.00 0.00 47 1007.9
20260502214430 8 0 0.0 1.6 0.00 0.00 0.00 46 1007.9
20260502213930 8 0 0.0 3.2 0.00 0.00 0.00 45 1007.9
20260502213430 8 0 0.0 3.2 0.00 0.00 0.00 46 1007.9
20260502212930 8 0 0.0 3.2 0.00 0.00 0.00 45 1007.9
20260502212431 8 0 0.0 3.2 0.00 0.00 0.00 45 1007.9
20260502211430 8 0 0.0 4.8 0.00 0.00 0.00 46 1008.0
20260502210930 8 0 0.0 6.4 0.00 0.00 0.00 45 1008.0
20260502210430 8 0 0.0 11.3 0.00 0.00 0.00 45 1008.1
20260502205930 8 0 0.0 11.3 0.00 0.00 0.00 45 1008.1
20260502205341 8 0 0.0 1.6 0.00 0.00 0.00 46 1008.0
20260502204841 8 0 0.0 3.2 0.00 0.00 0.00 45 1008.1
20260502204341 8 0 0.0 3.2 0.00 0.00 0.00 47 1008.1
20260502203841 8 0 0.0 3.2 0.00 0.00 0.00 47 1008.1
20260502203341 8 0 0.0 3.2 0.00 0.00 0.00 46 1008.2
20260502202841 7 0 0.0 1.6 0.00 0.00 0.00 47 1008.2
20260502202341 7 0 0.0 1.6 0.00 0.00 0.00 46 1008.3
20260502201841 7 0 0.0 1.6 0.00 0.00 0.00 46 1008.4
20260502201341 7 0 0.0 0.0 0.00 0.00 0.00 46 1008.4
20260502200841 8 0 0.0 0.0 0.00 0.00 0.00 45 1008.5
20260502200118 8 0 0.0 11.3 0.00 0.00 0.00 46 1008.5
20260502195618 8 0 0.0 11.3 0.00 0.00 0.00 44 1008.6
20260502194618 8 0 0.0 0.0 0.00 0.00 0.00 46 1008.7
20260502194118 8 0 0.0 3.2 0.00 0.00 0.00 45 1008.7
20260502193618 7 0 0.0 3.2 0.00 0.00 0.00 46 1008.7